742  
ASUS41 KAKQ 100815  
RWRAKQ  
 
REGIONAL WEATHER ROUNDUP  
NATIONAL WEATHER SERVICE WAKEFIELD VA  
300 AM EST MON DEC 10 2018  
 
NOTE: "FAIR" INDICATES FEW OR NO CLOUDS BELOW 12,000 FEET WITH NO  
SIGNIFICANT WEATHER AND/OR S TO VISIBILITY
. * = DENOTES  
STATION MAY NOT REPORT PRECIPITATION (E.G., RAIN,SNOW,ETC.),
 
THUNDER OR FOG.  
 
VAZ042-051-052>054-056-100900-  
NORTHERN VIRGINIA  
 
CITY SKY/WX TMP DP RH WIND PRES REMARKS
 
WASH NATIONAL MOCLDY 32 17 54 N9 30.11S  
DULLES MOCLDY 28 18 66 N10 30.11R WCI 19  
FORT BELVOIR CLOUDY 31 16 55 N3 30.11R  
QUANTICO FAIR 29 20 69 N3 30.12S  
FREDERICKSBRG* FAIR 29 24 79 N6 30.09F  
STAFFORD* FAIR 28 22 76 N5 30.14R  
WARRENTON FAIR 27 19 72 CALM 30.10R  
CULPEPER* FAIR 26 20 76 N3 30.11S  
MANASSAS* FAIR 28 20 71 N9 30.11S  
LEESBURG* FAIR 28 23 80 N6 30.13R  
WINCHESTER FAIR 18 14 86 CALM 30.13S  
FRONT ROYAL* FAIR 21 21 100 MISG 30.11S  
LURAY* FAIR 23 23 100 CALM 30.11S FOG  

 
 
VAZ048-049-060>072-079>083-100900-  
CENTRAL AND SOUTH CENTRAL VIRGINIA  
 
CITY SKY/WX TMP DP RH WIND PRES REMARKS
 
RICHMOND CLOUDY 31 25 78 N15 30.05S WCI 20  
CHESTERFIELD* CLOUDY 30 27 88 N13 30.05S WCI 20  
PETERSBURG* LGT RAIN 32 28 85 N9 30.04S  
HANOVER MOCLDY 30 24 78 VRB5 30.08S  
TAPPAHANNOCK* FAIR 31 28 88 N6 30.07S  
QUINTON* CLOUDY 31 28 90 N6 30.04F  
CHARLOTTSVILLE FAIR 28 23 81 N3 30.06F  
GORDONSVILLE* FAIR 28 22 78 CALM 30.08R  
ORANGE* FAIR 28 21 74 E3 30.09R  
LOUISA* FAIR 27 20 75 N8 30.11F  
BUMPASS* FAIR 29 20 69 NE6 30.08R  
FARMVILLE* NOT AVBL  
CREWE* CLOUDY 28 27 96 N5 30.04S  
FORT PICKETT* CLOUDY 31 31 100 N9 30.02F  
CHASE CITY* CLOUDY 31 31 100 N10 30.02S WCI 22  
CLARKSVILLE* CLOUDY 32 32 100 N6 30.01S  
SOUTH HILL* CLOUDY 32 32 100 N9 30.06S  
LAWRENCEVILLE* CLOUDY 32 31 96 MISG 30.01R  
EMPORIA* NOT AVBL  

 
 
VAZ088>098-100900-  
SOUTHEAST VIRGINIA  
 
CITY SKY/WX TMP DP RH WIND PRES REMARKS
 
NORFOLK LGT RAIN 41 40 96 N21G32 29.95R  
VIRGINIA BEACH LGT RAIN 40 39 97 N16G26 29.93S  
NORFOLK NAVAL LGT RAIN 41 38 89 N20G36 29.98R  
WEST POINT* CLOUDY 33 32 96 N7 30.05S  
SALUDA* CLOUDY 35 33 94 N13G20 30.03R  
NEWPORT NEWS LGT RAIN 37 34 89 NE12G21 29.98S  
LANGLEY AFB NOT AVBL  
FORT EUSTIS NOT AVBL  
WILLIAMSBURG* NOT AVBL  
HR EXEC AP* NOT AVBL  
FRANKLIN* DRIZZLE 35 34 98 N10 29.98S  
US460-WAKEFLD MIX PCPN 34 31 88 N8 30.00R  

 
 
VAZ020-022-025-037-045-100900-  
WEST CENTRAL AND SOUTHWEST VIRGINIA  
 
CITY SKY/WX TMP DP RH WIND PRES REMARKS
 
STAUNTON* FOG 21 20 97 N3 30.11S VSB 1  
WAYNESBORO* FAIR 23 22 96 CALM 30.07S  
HOT SPRINGS VA CLOUDY 31 31 100 N3 29.97S  
LYNCHBURG MOCLDY 30 29 96 N5 30.03S FOG  
DANVILLE N/A N/A N/A N/A MISG 30.02S  
SOUTH BOSTON* CLOUDY 32 30 95 N6 30.03S  
MARTINSVILLE DRIZZLE 34 34 100 N5 30.04R  
ROANOKE CLOUDY 30 26 85 N12 30.07S WCI 20  
BLACKSBURG LGT SNOW 32 32 100 CALM 30.04R  
DUBLIN* LGT SNOW 31 31 100 CALM 30.02S  
MARION* LGT SNOW 32 32 100 CALM 30.02S  
HILLSVILLE* LGT SNOW 30 29 96 N5 29.96S  
RICHLANDS* FLURRIES 28 27 96 NE3 30.02S  
WISE* CLOUDY 32 32 100 CALM 30.04R FOG  
ABINGDON* CLOUDY 33 33 100 E3 30.01S  

 
 
MDZ021>025-VAZ099-100-100900-  
SOUTHERN MARYLAND AND THE DELMARVA PENINSULA  
 
CITY SKY/WX TMP DP RH WIND PRES REMARKS
 
PATUXENT RIVER FAIR 37 29 72 N14 30.07R  
BAY BRIDGE APT FAIR 32 23 69 N7 30.10R  
LEONARDTOWN FAIR 32 28 86 CALM 30.09R  
DOVER CLOUDY 29 21 73 N9 30.07S  
GEORGETOWN FAIR 36 26 67 N6 30.06S  
EASTON FAIR 31 19 61 N6 30.12R  
CAMBRIDGE CLEAR 30 23 74 N9 30.07S  
SALISBURY FAIR 34 32 92 N12 30.04S  
TANGIER CLOUDY 36 34 93 N20G26 30.02S WCI 25  
OCEAN CITY MOCLDY 38 31 76 N12G23 30.03S  
WALLOPS ISLAND FAIR 38 33 82 N15 30.01S  
ACCOMACK* CLOUDY 37 36 94 N13G18 29.99S  

 
 
NCZ012>017-030>032-100900-  
NORTH CENTRAL AND EASTERN NORTH CAROLINA  
 
CITY SKY/WX TMP DP RH WIND PRES REMARKS
 
ROANOKE RAPIDS DRIZZLE 32 32 100 N14 29.98R WCI 22  
RALEIGH LGT RAIN 33 32 96 NE12 29.96S FOG WCI 24  
ELIZABETH CITY LGT RAIN 46 43 89 N21 29.88R  
AHOSKIE* DRIZZLE 35 35 100 N15G21 29.96R  
EDENTON* CLOUDY 44 42 93 N14G22 29.90R  
CURRITUCK* LGT RAIN 44 44 100 MISG 29.89R  
KILL DEVIL HLS RAIN 48 47 95 N20G26 29.82R  
MANTEO LGT RAIN 48 46 95 NE24G47 29.82R  
CAPE HATTERAS CLOUDY 51 50 96 NE14G30 29.75R FOG  
TARBORO* LGT RAIN 36 34 94 N14G21 29.94R FOG  
GOLDSBORO LGT RAIN 37 36 93 N13G18 29.89S  
WASHINGTON DRIZZLE 42 40 93 N13G21 29.89R  
GREENVILLE DRIZZLE 37 36 93 N14G23 29.93R  
NEW BERN CLOUDY 47 45 93 N14G24 29.86R  
WILMINGTON CLOUDY 41 39 93 N9 29.86S FOG  

 
 
VAZ048-100900-  
ELSEWHERE  
 
CITY SKY/WX TMP DP RH WIND PRES REMARKS
 
HARRISBURG PA FAIR 25 17 72 NW7 30.12R  
BALTIMORE MOCLDY 30 17 58 N6 30.10S  
ANNAPOLIS FAIR 35 20 54 N8 30.09S  
ANDREWS AFB MOCLDY 29 17 61 N6 30.08R  
PHILADELPHIA FAIR 27 16 63 N10 30.12R WCI 17  
HENDERSON NC MIX PCPN 30 29 94 CALM 29.99S  
GREENSBORO LGT RAIN 33 32 96 NE12 29.97S FOG WCI 24  
ROCKY MOUNT MIX PCPN 36 35 96 N18 29.95R FOG  

 
 
VAZ100-100900-  
MARINE  
 
STATION/POSITION TIME TEMP WIND PRES WAVE SWELL
 
AIR SEA DIR/SP/G HT/PER HT/PER  
(UTC) (F) (DEG/KT/KT) (MB) (FT/S) (FT/S)  
BRANDYWINE LGT 0730 1018.3F  
CAPE MAY NJ 0736 32 43 20/ 3/ 7 1017.7F  
LEWES DE 0736 36 41 20/ 14/ 17 1018.2R  
15NM E FENWICK I 0750 51 1016.1F 7/ 6  
OCEAN-CITY-INLET 0736 39 46 20/ 10/ 18 1017.3F  
WACHAPREAGUE VA 0736 38 40 10/ 10/ 16 1014.7R  
THOMAS POINT MD 0800 32 40 350/ 14/ 15 1019.7R  
COVE POINT MD 0736 35 10/ 11/ 16 1018.9R  
SOLOMONS ISLAND 0736 34 43 350/ 9/ 12 1018.1R  
BISHOPS HEAD MD 0736 32 38 350/ 6/ 12 1018.0R  
PINEY POINT MD 0742 360/ 7/ 9 N/A  
POTOMAC MD 0800 36 42 30/ 16/ 19 1016.9  
CAMBRIDGE MD 0736 32 39 1018.3R  
LEWISETTA VA 0742 36 39 30/ 8/ 13 1018.0R  
RAPPAHANNOCK LGT 0742 10/ 29/ 34 1015.9F  
STINGRAY PT 0800 38 45 40/ 21/ 27 1017.2 3/ 3  
YORK RVR RNG VA 0742 40 20/ 25/ 28 1015.6S  
YORKTOWN VA 0742 38 46 10/ 15/ 18 1015.4R  
DOMINION TERM VA 0742 40 60/ 4/ 11 1014.7S  
KIPTOPEKE VA 0742 44 20/ 10/ 14 N/A  
CAPE HENRY VA 0742 40 10/ 30/ 33 1012.2R  
WILLOUBY STN VA 0742 41 20/ 23/ 31 1014.2R  
S CRANEY ISL VA 0742 41 20/ 24/ 29 1014.0R  
CAPE HENRY BUOY 0800 51 N/A 11/10 5/11  
1ST LANDING BUOY 0800 41 49 40/ 23/ 29 1014.1 6/ 5  
64NM E OF VA BCH 0750 51 55 40/ 31/ 41 1009.7R 17/11 11/11  
DUCK PIER NC 0742 49 48 30/ 33/ 40 1009.9R  
44100 DUCK FRF 0745 54 N/A 17/11 10/11  
44056 DUCK FRF 0800 49 N/A 16/11 11/11  
OREGON INLET NC 0742 49 50 10/ 25/ 37 1008.6R  
HATTERAS NC 0742 50 53 20/ 26/ 33 1006.5R  
DIAMOND SHLS NC 0750 76 20/ 33/ 41 1006.2R 15/11 11/11  
CAPE LOOKOUT NC 0700 360/ 26/ 32 1008.1R  

 
 
 
CLICK HERE TO GO TO PREVIOUS BULLETINS.

The Nexlab VA Page
The Nexlab NC Page
The Nexlab MD Page Main Text Page